Simultaneous Nadir Overpasses (SNOs) Predictions

Prediction of SNOs between GOES-17 and AQUA Satellite Orbit:

Table of predicted SNOs for the next 14.0 days since TLE Epoch: 8/8/2025
Index Date Time (GOES-17) GOES-17 Lat,Lon AQUA Lat,Lon Distance(km) Time Diff (sec)
1 08/09/2025 08:41:19 -0.15, -89.47 -0.38, -88.42 118.93 80
2 08/09/2025 21:00:35 0.16, -89.50 -0.59, -93.08 407.26 80
3 08/11/2025 20:42:47 0.16, -89.51 0.49, -88.07 163.63 80
4 08/12/2025 09:01:54 -0.16, -89.48 0.50, -92.69 364.73 80
5 08/14/2025 08:38:45 -0.16, -89.49 -0.55, -87.67 206.48 80
6 08/14/2025 20:58:00 0.16, -89.51 -0.46, -92.32 319.66 80
7 08/16/2025 20:40:11 0.17, -89.52 0.62, -87.30 251.66 80
8 08/17/2025 08:59:17 -0.17, -89.50 0.36, -91.92 276.42 80
9 08/19/2025 08:36:08 -0.18, -89.50 -0.74, -86.91 294.91 80
10 08/19/2025 20:55:23 0.18, -89.53 -0.26, -91.56 231.24 80
11 08/21/2025 20:37:33 0.19, -89.54 0.82, -86.54 341.31 80
12 08/22/2025 08:56:40 -0.19, -89.52 0.15, -91.16 186.01 80
